COSMOS 2466 (738)

Last updated on Mon May 30 2016 01:44:42 GMT+0000 (Coordinated Universal Time)

1 37137U 10041A 16150.76656545 -.00000006 00000-0 10000-3 0 9995 2 37137 64.8426 317.2131 0019251 152.6659 262.0946 2.13111044 44681
UTC large
Height (km)
Speed (km/s)
/
Latitude / Longitude
Inclination (degrees)
Orbital Period (minutes)
Azimuth
Elevation
Range (km)
Doppler Factor

Next 0 passes for location: London (51.5072 / 0.1276)

Sorry there are no passes over London.
COSMOS 2466 (738)